| time (UTC) | temp F | wind direction | speed knots | gust knots | rain 1hr in | rain 24hr in | rain mn in | humidity % | barometer mb |
| 20260508024550 | 47 | 55 | 0.0 | 1.7 | 0.00 | 0.00 | 0.00 | 1 | 1016.5 |
| 20260508023040 | 47 | 55 | 0.0 | 1.7 | 0.00 | 0.00 | 0.00 | 1 | 1016.5 |
| 20260508021535 | 47 | 55 | 0.0 | 1.7 | 0.00 | 0.00 | 0.00 | 1 | 1016.5 |
| 20260508020031 | 47 | 55 | 0.0 | 0.0 | 0.00 | 0.00 | 0.00 | 1 | 1016.5 |
| 20260508014529 | 47 | 55 | 0.0 | 1.7 | 0.00 | 0.00 | 0.00 | 1 | 1016.6 |
| 20260508013021 | 47 | 55 | 0.0 | 2.6 | 0.00 | 0.00 | 0.00 | 1 | 1016.5 |
| 20260508011517 | 47 | 135 | 0.0 | 0.9 | 0.00 | 0.00 | 0.00 | 1 | 1016.6 |
| 20260508010015 | 47 | 135 | 0.0 | 0.0 | 0.00 | 0.00 | 0.00 | 1 | 1016.7 |
| 20260508004509 | 48 | 135 | 0.0 | 0.0 | 0.00 | 0.00 | 0.00 | 1 | 1016.7 |
| 20260508003005 | 48 | 135 | 0.0 | 0.0 | 0.00 | 0.00 | 0.00 | 1 | 1016.7 |
| 20260508001600 | 48 | 135 | 0.0 | 0.0 | 0.00 | 0.00 | 0.00 | 1 | 1016.8 |
| 20260508000058 | 48 | 135 | 0.0 | 0.0 | 0.00 | 0.00 | 0.00 | 8 | 1016.8 |
| 20260507234552 | 49 | 135 | 0.0 | 0.0 | 0.00 | 0.00 | 0.00 | 14 | 1016.9 |
| 20260507233049 | 49 | 135 | 0.0 | 0.0 | 0.00 | 0.00 | 0.00 | 15 | 1017.0 |
| 20260507231551 | 50 | 135 | 0.0 | 0.0 | 0.00 | 0.00 | 0.00 | 19 | 1017.0 |
| 20260507230050 | 50 | 135 | 0.0 | 2.6 | 0.00 | 0.00 | 0.00 | 23 | 1017.1 |
| 20260507224543 | 50 | 162 | 0.9 | 1.7 | 0.00 | 0.00 | 0.00 | 30 | 1017.2 |
| 20260507223036 | 50 | 106 | 0.0 | 2.6 | 0.00 | 0.00 | 0.00 | 34 | 1017.0 |
| 20260507221537 | 51 | 87 | 0.0 | 1.7 | 0.00 | 0.00 | 0.00 | 39 | 1016.9 |
| 20260507220027 | 51 | 145 | 0.0 | 0.0 | 0.00 | 0.00 | 0.00 | 42 | 1017.1 |
| 20260507214522 | 52 | 145 | 0.0 | 1.7 | 0.00 | 0.00 | 0.00 | 46 | 1017.2 |
| 20260507213018 | 52 | 145 | 0.0 | 0.9 | 0.00 | 0.00 | 0.00 | 49 | 1017.2 |
| 20260507211520 | 52 | 145 | 0.0 | 1.7 | 0.00 | 0.00 | 0.00 | 51 | 1017.2 |
| 20260507210009 | 53 | 129 | 0.0 | 2.6 | 0.00 | 0.00 | 0.00 | 53 | 1017.0 |
| 20260507204507 | 53 | 120 | 0.9 | 3.5 | 0.00 | 0.00 | 0.00 | 55 | 1016.8 |
| 20260507203111 | 53 | 148 | 0.9 | 4.3 | 0.00 | 0.00 | 0.00 | 57 | 1016.7 |
| 20260507201600 | 54 | 122 | 0.9 | 3.5 | 0.00 | 0.00 | 0.00 | 58 | 1016.6 |
| 20260507200106 | 54 | 115 | 0.9 | 3.5 | 0.00 | 0.00 | 0.00 | 60 | 1016.4 |
| 20260507194547 | 55 | 129 | 0.9 | 4.3 | 0.00 | 0.00 | 0.00 | 60 | 1016.2 |
| 20260507193047 | 55 | 133 | 0.9 | 6.1 | 0.00 | 0.00 | 0.00 | 60 | 1016.0 |
| 20260507191538 | 56 | 105 | 3.5 | 7.8 | 0.00 | 0.00 | 0.00 | 60 | 1015.9 |
| 20260507190034 | 56 | 142 | 2.6 | 7.8 | 0.00 | 0.00 | 0.00 | 60 | 1015.8 |
| 20260507184529 | 57 | 117 | 1.7 | 6.1 | 0.00 | 0.00 | 0.00 | 60 | 1015.8 |
| 20260507183025 | 58 | 115 | 3.5 | 9.6 | 0.00 | 0.00 | 0.00 | 60 | 1015.8 |
| 20260507181525 | 59 | 116 | 2.6 | 7.8 | 0.00 | 0.00 | 0.00 | 59 | 1015.7 |
| 20260507180022 | 59 | 136 | 1.7 | 7.8 | 0.00 | 0.00 | 0.00 | 57 | 1015.5 |
| 20260507174514 | 59 | 119 | 2.6 | 8.7 | 0.00 | 0.00 | 0.00 | 56 | 1015.4 |
| 20260507173019 | 60 | 173 | 3.5 | 7.8 | 0.00 | 0.00 | 0.00 | 55 | 1015.4 |
| 20260507171507 | 60 | 133 | 3.5 | 7.8 | 0.00 | 0.00 | 0.00 | 55 | 1015.4 |
| 20260507170103 | 60 | 131 | 2.6 | 7.0 | 0.00 | 0.00 | 0.00 | 56 | 1015.4 |
| 20260507164600 | 60 | 155 | 1.7 | 7.8 | 0.00 | 0.00 | 0.00 | 55 | 1015.5 |
| 20260507163048 | 61 | 124 | 4.3 | 7.8 | 0.00 | 0.00 | 0.00 | 55 | 1015.5 |
| 20260507161543 | 62 | 119 | 4.3 | 8.7 | 0.00 | 0.00 | 0.00 | 54 | 1015.6 |
| 20260507160040 | 63 | 135 | 4.3 | 8.7 | 0.00 | 0.00 | 0.00 | 52 | 1015.5 |
| 20260507154539 | 64 | 152 | 2.6 | 7.8 | 0.00 | 0.00 | 0.00 | 47 | 1015.5 |
| 20260507153030 | 64 | 116 | 4.3 | 7.8 | 0.00 | 0.00 | 0.00 | 45 | 1015.5 |
| 20260507151525 | 64 | 110 | 0.9 | 3.5 | 0.00 | 0.00 | 0.00 | 44 | 1015.5 |
| 20260507150026 | 64 | 46 | 1.7 | 4.3 | 0.00 | 0.00 | 0.00 | 43 | 1015.5 |
| 20260507144524 | 64 | 153 | 1.7 | 5.2 | 0.00 | 0.00 | 0.00 | 45 | 1015.6 |
| 20260507143013 | 64 | 50 | 0.9 | 5.2 | 0.00 | 0.00 | 0.00 | 42 | 1015.7 |
| 20260507141508 | 63 | 75 | 1.7 | 8.7 | 0.00 | 0.00 | 0.00 | 44 | 1015.7 |
| 20260507140005 | 64 | 74 | 0.9 | 3.5 | 0.00 | 0.00 | 0.00 | 42 | 1015.9 |
| 20260507134609 | 63 | 14 | 0.9 | 3.5 | 0.00 | 0.00 | 0.00 | 40 | 1015.9 |
| 20260507133123 | 63 | 161 | 1.7 | 4.3 | 0.00 | 0.00 | 0.00 | 44 | 1016.0 |
| 20260507131554 | 63 | 229 | 2.6 | 6.1 | 0.00 | 0.00 | 0.00 | 43 | 1016.0 |
| 20260507130103 | 63 | 108 | 0.9 | 3.5 | 0.00 | 0.00 | 0.00 | 41 | 1016.0 |
| 20260507124541 | 64 | 206 | 0.9 | 2.6 | 0.00 | 0.00 | 0.00 | 39 | 1016.0 |
| 20260507123039 | 65 | 247 | 0.9 | 7.0 | 0.00 | 0.00 | 0.00 | 38 | 1016.1 |
| 20260507121533 | 66 | 337 | 1.7 | 4.3 | 0.00 | 0.00 | 0.00 | 37 | 1016.2 |
| 20260507120028 | 64 | 208 | 0.0 | 4.3 | 0.00 | 0.00 | 0.00 | 41 | 1016.2 |
| 20260507114525 | 64 | 320 | 1.7 | 5.2 | 0.00 | 0.00 | 0.00 | 42 | 1016.4 |
| 20260507113023 | 64 | 313 | 1.7 | 4.3 | 0.00 | 0.00 | 0.00 | 43 | 1016.3 |
| 20260507111516 | 65 | 316 | 2.6 | 7.8 | 0.00 | 0.00 | 0.00 | 41 | 1016.5 |
| 20260507110013 | 65 | 308 | 0.9 | 5.2 | 0.00 | 0.00 | 0.00 | 42 | 1016.4 |
| 20260507104508 | 64 | 128 | 1.7 | 4.3 | 0.00 | 0.00 | 0.00 | 45 | 1016.6 |
| 20260507103003 | 63 | 36 | 0.9 | 7.0 | 0.00 | 0.00 | 0.00 | 47 | 1016.6 |
| 20260507101612 | 60 | 144 | 1.7 | 6.1 | 0.00 | 0.00 | 0.00 | 54 | 1016.8 |
| 20260507094550 | 59 | 151 | 0.9 | 4.3 | 0.00 | 0.00 | 0.00 | 56 | 1016.8 |
| 20260507093048 | 59 | 268 | 0.0 | 5.2 | 0.00 | 0.00 | 0.00 | 56 | 1016.8 |
| 20260507091546 | 59 | 129 | 0.0 | 3.5 | 0.00 | 0.00 | 0.00 | 58 | 1016.9 |
| 20260507090039 | 58 | 177 | 0.9 | 5.2 | 0.00 | 0.00 | 0.00 | 59 | 1016.9 |
| 20260507084532 | 58 | 135 | 2.6 | 6.1 | 0.00 | 0.00 | 0.00 | 53 | 1016.9 |
| 20260507083032 | 56 | 91 | 1.7 | 4.3 | 0.00 | 0.00 | 0.00 | 4 | 1016.9 |
| 20260507081523 | 52 | 95 | 1.7 | 7.0 | 0.00 | 0.00 | 0.00 | 1 | 1016.9 |
| 20260507080022 | 49 | 94 | 0.9 | 3.5 | 0.00 | 0.00 | 0.00 | 1 | 1016.9 |
| 20260507074514 | 47 | 99 | 0.0 | 2.6 | 0.00 | 0.00 | 0.00 | 1 | 1016.8 |
| 20260507073011 | 46 | 37 | 1.7 | 4.3 | 0.00 | 0.00 | 0.00 | 1 | 1016.8 |
| 20260507071505 | 45 | 56 | 1.7 | 3.5 | 0.00 | 0.00 | 0.00 | 1 | 1016.8 |
| 20260507070002 | 43 | 49 | 0.9 | 2.6 | 0.00 | 0.00 | 0.00 | 1 | 1016.8 |
| 20260507064600 | 42 | 55 | 0.0 | 1.7 | 0.00 | 0.00 | 0.00 | 1 | 1016.8 |
| 20260507063057 | 41 | 317 | 0.0 | 0.0 | 0.00 | 0.00 | 0.00 | 1 | 1016.8 |
| 20260507061548 | 40 | 310 | 0.0 | 0.0 | 0.00 | 0.00 | 0.00 | 1 | 1016.8 |
| 20260507060043 | 40 | 295 | 0.0 | 1.7 | 0.00 | 0.00 | 0.00 | 1 | 1016.7 |
| 20260507054540 | 39 | 295 | 0.0 | 1.7 | 0.00 | 0.00 | 0.00 | 1 | 1016.6 |
| 20260507053034 | 39 | 302 | 0.0 | 0.9 | 0.00 | 0.00 | 0.00 | 1 | 1016.5 |
| 20260507051532 | 39 | 302 | 0.0 | 0.9 | 0.00 | 0.00 | 0.00 | 1 | 1016.4 |
| 20260507050028 | 39 | 337 | 0.0 | 0.0 | 0.00 | 0.00 | 0.00 | 1 | 1016.4 |
| 20260507044519 | 40 | 337 | 0.0 | 0.0 | 0.00 | 0.00 | 0.00 | 1 | 1016.2 |
| 20260507043022 | 40 | 337 | 0.0 | 0.0 | 0.00 | 0.00 | 0.00 | 1 | 1016.1 |
| 20260507041511 | 40 | 337 | 0.0 | 0.0 | 0.00 | 0.00 | 0.00 | 1 | 1016.1 |
| 20260507040010 | 41 | 337 | 0.0 | 0.0 | 0.00 | 0.00 | 0.00 | 1 | 1016.2 |
| 20260507034503 | 41 | 337 | 0.0 | 0.0 | 0.00 | 0.00 | 0.00 | 1 | 1016.2 |
| 20260507033105 | 41 | 337 | 0.0 | 0.0 | 0.00 | 0.00 | 0.00 | 1 | 1016.1 |
| 20260507031554 | 42 | 337 | 0.0 | 0.0 | 0.00 | 0.00 | 0.00 | 1 | 1016.2 |
| 20260507030049 | 42 | 337 | 0.0 | 0.0 | 0.00 | 0.00 | 0.00 | 1 | 1016.1 |